Location: Unspecified
(0.0000°N, 0.0000°E)
Time: 19:27:57
(UTC+00:00)

Vanguard 3 - Pass Details

Date: 03 October 2023
Orbit: 507 x 3241 km, 33.3° (Epoch: 29 November)

Event Time Altitude Azimuth Distance (km) Brightness Sun altitude
Rises 08:48:24 0° 209° (SSW) 5,119 11.1 44.7°
Reaches altitude 10° 08:53:32 10° 189° (S) 4,654 11.1 46.0°
Maximum altitude 09:01:32 17° 153° (SSE) 4,769 11.6 47.9°
Drops below altitude 10° 09:11:22 10° 119° (ESE) 5,912 12.3 50.4°
Sets 09:19:26 0° 101° (E) 7,169 12.6 52.4°
